Weather History for Montague, CA

Change the Weather History Date:

Wednesday, February 20, 2013

  Actual Average Record
Temperature  
Mean Temperature 34 °F 40 °F  
Max Temperature 47 °F 52 °F 71 °F (1977)
Min Temperature 21 °F 28 °F 8 °F (1990)
Degree Days  
Heating Degree Days 31 25  
Month to date heating degree days 557 535  
Since 1 July heating degree days 3521 3687  
Cooling Degree Days 0 0  
Month to date cooling degree days 0 0  
Year to date cooling degree days 0 0  
Moisture  
Dew Point 24 °F    
Average Humidity 69    
Maximum Humidity 92    
Minimum Humidity 37    
Precipitation  
Precipitation 0.00 in 0.09 in 0.69 in (1975)
Month to date precipitation 0.26 1.39  
Year to date precipitation 0.97 3.59  
Sea Level Pressure  
Sea Level Pressure 30.09 in    
Wind  
Wind Speed 3 mph (NNE)    
Max Wind Speed 16 mph    
Max Gust Speed 17 mph    
Visibility 10 miles    
Events Snow    
T = Trace of Precipitation, MM = Missing Value Source: NWS Daily Summary

Daily Weather History Graph

Daily Weather History Graph

Search for Another Location

Airport:

Trip Planner

Search our weather history database for the weather conditions in past years. The results will help you decide how hot, cold, wet, or windy it might be!

Date:

Astronomy

Feb. 20, 2013 Rise Set
Actual Time 6:57 AM PST 5:49 PM PST
Civil Twilight 6:29 AM PST 6:18 PM PST
Nautical Twilight 5:57 AM PST 6:50 PM PST
Astronomical Twilight 5:25 AM PST 7:22 PM PST
Moon 1:13 PM PST 3:24 AM PST
Length of Visible Light 11h 48m
Length of Day
10h 51m
Waxing Gibbous, 77% of the Moon is Illuminated
Feb 20
Waxing Gibbous
Feb 25
Full
Mar 4
Last Quarter
Mar 11
New
Mar 19
First Quarter

Hourly Weather History & Observations

Time (PST) Temp. Windchill Dew Point Humidity Pressure Visibility Wind Dir Wind Speed Gust Speed Precip Events Conditions
12:53 AM 28.0 °F - 24.1 °F 85% 30.01 in 10.0 mi Calm Calm - N/A   Scattered Clouds
1:53 AM 25.0 °F - 21.0 °F 85% 30.03 in 10.0 mi Calm Calm - N/A   Clear
2:53 AM 25.0 °F 19.3 °F 21.9 °F 88% 30.04 in 10.0 mi NNE 4.6 mph - N/A   Partly Cloudy
3:53 AM 27.0 °F 18.0 °F 23.0 °F 85% 30.05 in 10.0 mi NE 9.2 mph - N/A   Scattered Clouds
4:53 AM 24.1 °F - 19.9 °F 84% 30.08 in 10.0 mi Calm Calm - N/A   Scattered Clouds
5:53 AM 26.1 °F - 24.1 °F 92% 30.09 in 10.0 mi Calm Calm - N/A   Overcast
6:53 AM 23.0 °F 18.4 °F 19.9 °F 88% 30.12 in 10.0 mi South 3.5 mph - N/A   Partly Cloudy
7:53 AM 25.0 °F - 21.9 °F 88% 30.13 in 10.0 mi Calm Calm - N/A   Clear
8:53 AM 30.9 °F - 27.0 °F 85% 30.14 in 10.0 mi Calm Calm - N/A   Clear
9:53 AM 36.0 °F - 28.9 °F 76% 30.13 in 10.0 mi Calm Calm - N/A   Clear
10:53 AM 39.9 °F - 27.0 °F 60% 30.13 in 10.0 mi Calm Calm - N/A   Clear
11:53 AM 41.0 °F 37.1 °F 25.0 °F 53% 30.12 in 10.0 mi WNW 5.8 mph - N/A   Clear
12:53 PM 42.1 °F 40.2 °F 24.1 °F 49% 30.11 in 10.0 mi SE 3.5 mph - N/A   Partly Cloudy
1:53 PM 43.0 °F 41.3 °F 23.0 °F 45% 30.10 in 10.0 mi South 3.5 mph - N/A   Partly Cloudy
2:53 PM 45.0 °F 42.6 °F 21.9 °F 40% 30.08 in 10.0 mi Variable 4.6 mph - N/A   Scattered Clouds
3:53 PM 46.0 °F - 21.9 °F 39% 30.06 in 10.0 mi Calm Calm - N/A   Clear
5:53 PM 42.1 °F 37.7 °F 24.1 °F 49% 30.06 in 10.0 mi WNW 6.9 mph - N/A   Overcast
6:53 PM 39.9 °F 32.5 °F 26.1 °F 58% 30.10 in 10.0 mi NNE 12.7 mph - N/A   Overcast
7:53 PM 39.0 °F 34.8 °F 26.1 °F 60% 30.10 in 10.0 mi North 5.8 mph - N/A   Overcast
8:53 PM 37.0 °F 33.3 °F 26.1 °F 65% 30.10 in 10.0 mi East 4.6 mph - N/A   Mostly Cloudy
9:53 PM 36.0 °F 33.3 °F 26.1 °F 67% 30.10 in 10.0 mi North 3.5 mph - N/A   Overcast
11:25 PM 35.6 °F 28.0 °F 26.6 °F 70% 30.05 in 10.0 mi North 10.4 mph - N/A   Overcast
11:53 PM 33.1 °F 26.1 °F 28.9 °F 85% 30.12 in 5.0 mi NNE 8.1 mph - 0.00 in Snow Light Snow